Location: Moscow
(55.7500°N, 37.5830°E)
Time: 11:33:29
(UTC+03:00)

A-11 Canister half - Pass Details

Date: 01 December 2021
Orbit: 1516 x 1684 km, 47.2° (Epoch: 24 January)

Event Time Altitude Azimuth Distance (km) Brightness Sun altitude
Rises 11:29:01 0° 261° (W) 4,850 11.6 11.7°
Reaches altitude 10° 11:32:12 10° 257° (WSW) 3,884 11.2 11.8°
Maximum altitude 11:41:44 53° 185° (S) 1,989 10.5 12.0°
Drops below altitude 10° 11:51:26 10° 113° (ESE) 3,948 11.6 12.2°
Sets 11:54:42 0° 109° (ESE) 4,935 12.0 12.2°
